Regional Weather Roundup
Issued by NWS Charleston, WV

Home | Current Version | Previous Version | Graphics & Text | Print | Product List | Glossary On
Versions: 1 2 3 4 5 6 7 8 9 10 11 12 13 14 15 16 17 18 19 20 21 22 23 24 25 26 27 28 29 30 31 32 33 34 35 36 37 38 39 40 41 42 43 44 45 46 47 48 49 50
000
ASUS41 KRLX 032010
RWRRLX
West Virginia Regional Weather Roundup
National Weather Service Charleston WV
400 PM EDT SUN MAY 03 2015

Note: "fair" indicates few or no clouds below 12,000 feet with no
significant weather and/or obstructions to visibility.

WVZ003-032100-
Northern Panhandle of West Virginia

CITY           SKY/WX    TMP DP  RH WIND       PRES   REMARKS
WHEELING       MOSUNNY   76  43  30 SW9       30.10F
$$

WVZ009-032100-
Northwest West Virginia

CITY           SKY/WX    TMP DP  RH WIND       PRES   REMARKS
PARKERSBURG    MOSUNNY   77  38  24 W10       30.14F
$$

WVZ006-032100-
Western West Virginia

CITY           SKY/WX    TMP DP  RH WIND       PRES   REMARKS
HUNTINGTON     MOSUNNY   76  38  25 VRB3      30.11F
$$

WVZ015-032100-
West Central West Virginia

CITY           SKY/WX    TMP DP  RH WIND       PRES   REMARKS
CHARLESTON     MOSUNNY   78  37  22 SE9       30.11F
$$

WVZ022-031-032100-
North Central West Virginia

CITY           SKY/WX    TMP DP  RH WIND       PRES   REMARKS
CLARKSBURG     PTSUNNY   75  42  30 W8        30.13F
MORGANTOWN     MOSUNNY   76  37  24 SW8       30.13F
$$

WVZ025-035-042-045-032100-
Southern West Virginia

CITY           SKY/WX    TMP DP  RH WIND       PRES   REMARKS
BECKLEY        MOSUNNY   72  31  22 VRB3      30.17F
LOGAN            N/A     75  34  22 CALM      30.11F
BLUEFIELD      SUNNY     73  32  22 VRB6      30.18F
LEWISBURG      CLOUDY    72  31  22 SW3       30.18F
$$

WVZ047-032100-
Northern Mountains of West Virginia

CITY           SKY/WX    TMP DP  RH WIND       PRES   REMARKS
ELKINS         PTSUNNY   71  34  25 S3        30.16S
$$

WVZ052-032100-
Eastern Panhandle of West Virginia

CITY           SKY/WX    TMP DP  RH WIND       PRES   REMARKS
MARTINSBURG    PTSUNNY   75  44  33 CALM      30.10F
PETERSBURG     MOSUNNY   77  38  24 SE5       30.12S
$$



USA.gov is the U.S. government's official web portal to all federal, state and local government web resources and services.